Location: Melbourne
(37.8120°S, 144.9677°E)
Time: 17:18:32
(UTC+10:00)

ISS - Visible Passes

Search period start: 31 July 2015 00:00
Search period end: 10 August 2015 00:00
Orbit: 402 x 403 km, 51.6° (Epoch: 30 July)

Date Brightness Start Highest point End Pass type
(mag) Time Alt. Az. Time Alt. Az. Time Alt. Az.
04 Aug -0.1 06:29:44 10° NNE 06:31:30 14° NE 06:33:23 10° E visible
06 Aug -1.5 06:17:59 10° NNW 06:20:59 34° NE 06:24:02 10° ESE visible
07 Aug -0.4 05:25:32 10° N 05:27:41 17° NE 05:29:53 10° E visible
08 Aug -3.4 06:07:27 13° NW 06:10:18 89° ENE 06:13:37 10° SE visible
09 Aug -2.1 05:16:54 39° NE 05:16:54 39° NE 05:19:53 10° ESE visible
